[[{"header":{"parameterUnit":"m.s-1","parameterCategory":1,"la1":30.2991,"la2":30.254,"lo1":-89.0895,"lo2":-89.0444,"dy":0.0017,"dx":0.0017,"nx":28,"ny":28,"refTime":"2024-12-17T03:00:00:Z","depth":0,"parameterNumber":2,"parameterNumberName":"U-component_of_WINDS"},"data":[0,0,0,0,0,0,0,0,0,0,0,0,0,0,0,0,0,0,0,0,0,0,0,0,0,0,0,0,0,0,0,0,0,0,0,0,0,0,0,0,0,0,0,0,0,0,0,0,0,0,0,0,0,0,0,0,0,0,-2.2736,-2.2737,0,-2.2746,-2.2746,-2.2746,-2.2711,-2.271,-2.2709,-2.2708,-2.2717,-2.2718,-2.2719,0,0,0,0,0,0,0,0,0,0,0,0,0,-2.2688,-2.2689,-2.2736,-2.2737,-2.2737,-2.2746,-2.2746,-2.2746,-2.2711,-2.271,-2.2709,-2.2708,-2.2716,-2.2718,-2.2719,0,0,0,0,0,0,0,0,0,0,0,0,0,-2.2705,-2.269,-2.2736,-2.2721,-2.2719,-2.2746,-2.2746,-2.2746,-2.2712,-2.271,-2.2709,-2.2707,-2.2716,-2.2717,-2.2719,-2.2761,0,0,-2.2725,-2.2725,0,0,0,0,0,0,0,0,-2.2704,-2.2706,-2.2723,-2.2722,-2.272,-2.2726,-2.2732,-2.2751,-2.2712,-2.2715,-2.2708,-2.2706,-2.2721,-2.2722,-2.2727,-2.2761,-2.2761,-2.2725,-2.2726,-2.2727,-2.2727,0,0,0,0,0,0,0,-2.2703,-2.2706,-2.274,-2.2723,-2.2722,-2.2713,-2.2713,-2.2735,-2.2726,-2.2714,-2.2712,-2.2713,-2.272,-2.2725,-2.2727,-2.2762,-2.2725,-2.2726,-2.2727,-2.2728,-2.283,-2.2832,0,0,0,0,0,0,-2.2704,-2.2705,-2.274,-2.274,-2.2708,-2.2715,-2.2716,-2.2726,-2.2726,-2.2724,-2.2715,-2.2712,-2.2723,-2.2725,-2.2727,-2.2775,-2.2726,-2.2728,-2.2729,-2.2829,-2.2831,-2.2832,0,0,0,0,0,0,-2.2703,-2.2707,-2.2739,-2.2722,-2.2725,-2.2717,-2.2729,-2.2727,-2.2732,-2.2726,-2.2724,-2.2722,-2.2722,-2.2725,-2.2753,-2.2775,-2.2729,-2.2731,-2.2827,-2.2829,-2.2831,-2.2872,0,0,0,0,0,0,-2.2702,-2.2707,-2.2723,-2.2723,-2.2727,-2.2765,-2.273,-2.2728,-2.2735,-2.2732,-2.2733,-2.2731,-2.2721,-2.275,-2.2754,-2.2776,-2.2732,-2.2824,-2.2828,-2.2831,-2.2868,-2.2875,-2.2881,0,0,0,0,0,-2.27,-2.2733,-2.2724,-2.2728,-2.2746,-2.2766,-2.2768,-2.2756,-2.2737,-2.2753,-2.2749,-2.2731,-2.2773,-2.2753,-2.2758,-2.2781,-2.2823,-2.2827,-2.283,-2.2866,-2.2874,-2.2881,0,0,0,0,0,0,-2.2735,-2.2733,-2.2722,-2.2757,-2.2762,-2.276,-2.2779,-2.2766,-2.2776,-2.2772,-2.2756,-2.2757,-2.2787,-2.2787,-2.2766,-2.2821,-2.2794,-2.2799,-2.282,-2.2828,-2.2834,-2.2832,-2.2733,0,0,0,0,0,-2.2748,-2.2764,-2.2761,-2.2792,-2.2796,-2.2787,-2.2796,-2.2786,-2.2791,-2.2792,-2.2791,-2.2796,-2.281,-2.2819,-2.2832,-2.2869,-2.2868,-2.2887,-2.2894,-2.2899,-2.2903,-2.2922,-2.293,-2.2845,-2.2845,-2.2844,0,0,-2.2772,-2.2773,-2.2784,-2.2799,-2.2802,-2.282,-2.2789,-2.2809,-2.2821,-2.2795,-2.2821,-2.2821,-2.2825,-2.2858,-2.2872,-2.2859,-2.2927,-2.2904,-2.2908,-2.2909,-2.2927,-2.2935,-2.2942,-2.2847,-2.2847,-2.2846,0,0,-2.2825,-2.2828,-2.2854,-2.2858,-2.2863,-2.2858,-2.2864,-2.2865,-2.2863,-2.289,-2.287,-2.2885,-2.291,-2.2914,-2.2919,-2.2976,-2.2959,-2.298,-2.3013,-2.3032,-2.3039,-2.3045,-2.3064,-2.3071,-2.2985,-2.2985,-2.2985,0,-2.2855,-2.288,-2.2869,-2.289,-2.2897,-2.2875,-2.2901,-2.2905,-2.2914,-2.2919,-2.2904,-2.2935,-2.2937,-2.297,-2.2984,-2.2989,-2.2995,-2.2979,-2.3039,-2.3045,-2.305,-2.3068,-2.3075,-2.2987,-2.2987,-2.2987,-2.2986,0,-2.2916,-2.2934,-2.2954,-2.2964,-2.2974,-2.2997,-2.2989,-2.3,-2.299,-2.2986,-2.3013,-2.3015,-2.3027,-2.3035,-2.3025,-2.3067,-2.3058,-2.3042,-2.3014,-2.3061,-2.3077,-2.3084,-2.2991,-2.299,-2.2989,-2.2988,0,0,-2.2989,-2.2993,-2.3001,-2.3005,-2.301,-2.3024,-2.3047,-2.3059,-2.3069,-2.3076,-2.3094,-2.3116,-2.3101,-2.3107,-2.3098,-2.3116,-2.3159,-2.3097,-2.3096,-2.3107,-2.3204,-2.3215,-2.3223,-2.3149,-2.3151,-2.3152,-2.3203,0,-2.304,-2.3079,-2.307,-2.3108,-2.3124,-2.3105,-2.3125,-2.313,-2.3128,-2.3141,-2.3139,-2.3154,-2.3133,-2.3137,-2.3153,-2.315,-2.3178,-2.3147,-2.3165,-2.3165,-2.3162,-2.3232,-2.3243,-2.3291,-2.3209,-2.3211,-2.3211,0,-2.3104,-2.3115,-2.3155,-2.3157,-2.3164,-2.3182,-2.3193,-2.3206,-2.3212,-2.3209,-2.3217,-2.3205,-2.3227,-2.3202,-2.3232,-2.3211,-2.3218,-2.3218,-2.322,-2.3219,-2.319,-2.3231,-2.3306,-2.3313,-2.3222,-2.3221,-2.322,0,-2.3151,-2.3176,-2.3203,-2.3207,-2.3212,-2.3225,-2.3227,-2.3231,-2.324,-2.325,-2.3255,-2.3268,-2.3274,-2.3284,-2.3276,-2.3258,-2.3307,-2.3281,-2.3304,-2.3304,-2.3313,-2.3312,-2.3389,-2.3322,-2.3321,-2.3321,-2.3321,0,-2.3208,-2.3233,-2.3224,-2.324,-2.3268,-2.3258,-2.3285,-2.3285,-2.329,-2.3305,-2.329,-2.3305,-2.3295,-2.3309,-2.3303,-2.3328,-2.3332,-2.3329,-2.3327,-2.3329,-2.3329,-2.3332,-2.3328,-2.3323,-2.3323,-2.3322,-2.3322,0,-2.3264,-2.326,-2.3287,-2.329,-2.3291,-2.3311,-2.3313,-2.3328,-2.3326,-2.3346,-2.335,-2.3346,-2.3362,-2.3356,-2.3373,-2.3369,-2.3401,-2.3395,-2.3399,-2.3396,-2.3419,-2.3417,-2.3498,-2.3508,-2.3437,-2.3438,-2.3438,0,-2.3299,-2.3318,-2.3323,-2.3333,-2.3336,-2.3353,-2.3361,-2.3353,-2.3362,-2.3371,-2.3385,-2.34,-2.3411,-2.3438,-2.3436,-2.345,-2.3443,-2.3471,-2.3444,-2.3446,-2.3441,-2.3439,-2.3441,-2.3475,-2.3476,-2.3477,-2.3477,0,-2.3362,-2.3359,-2.3372,-2.3385,-2.3397,-2.3406,-2.3415,-2.3424,-2.3416,-2.3428,-2.3444,-2.3453,-2.3471,-2.3486,-2.3498,-2.35,-2.3487,-2.3486,-2.3492,-2.3493,-2.3494,-2.3492,-2.3411,-2.3483,-2.3483,-2.3482,-2.3482,-2.3482,-2.3407,-2.3423,-2.3429,-2.3444,-2.345,-2.3459,-2.3473,-2.3473,-2.3487,-2.3501,-2.3495,-2.3514,-2.352,-2.3535,-2.3539,-2.3554,-2.3543,-2.3552,-2.3553,-2.3555,-2.3557,-2.3494,-2.3556,-2.3556,-2.3556,-2.3556,-2.3556,0,-2.3467,-2.347,-2.3485,-2.3498,-2.351,-2.3499,-2.3508,-2.3519,-2.3536,-2.3543,-2.3555,-2.3574,-2.3589,-2.3589,-2.3603,-2.3614,-2.3609,-2.3618,-2.3616,-2.3616,-2.3567,-2.356,-2.3622,-2.3622,-2.3622,-2.3622,-2.3622,-2.3622,-2.3499,-2.3525,-2.3523,-2.3552,-2.3555,-2.3574,-2.358,-2.3588,-2.3593,-2.3616,-2.3628,-2.3629,-2.3633,-2.3647,-2.366,-2.366,-2.3665,-2.3676,-2.3673,-2.3627,-2.362,-2.3614,-2.3607,-2.3677,-2.3677,-2.3721,-2.3721,-2.3721]},{"header":{"parameterUnit":"m.s-1","parameterCategory":1,"la1":30.2991,"la2":30.254,"lo1":-89.0895,"lo2":-89.0444,"dy":0.0017,"dx":0.0017,"nx":28,"ny":28,"refTime":"2024-12-17T03:00:00:Z","depth":0,"parameterNumber":3,"parameterNumberName":"V-component_of_WINDS"},"data":[0,0,0,0,0,0,0,0,0,0,0,0,0,0,0,0,0,0,0,0,0,0,0,0,0,0,0,0,0,0,0,0,0,0,0,0,0,0,0,0,0,0,0,0,0,0,0,0,0,0,0,0,0,0,0,0,0,0,0.5935,0.5936,0,0.5977,0.5977,0.5978,0.6023,0.6023,0.6024,0.6024,0.6066,0.6066,0.6067,0,0,0,0,0,0,0,0,0,0,0,0,0,0.5893,0.5894,0.5935,0.5936,0.5936,0.5977,0.5978,0.5978,0.6022,0.6023,0.6024,0.6025,0.6065,0.6066,0.6067,0,0,0,0,0,0,0,0,0,0,0,0,0,0.5921,0.5894,0.5935,0.5963,0.5966,0.5977,0.5978,0.5978,0.6022,0.6023,0.6024,0.6025,0.6065,0.6066,0.6067,0.6052,0,0,0.6069,0.6069,0,0,0,0,0,0,0,0,0.5919,0.5922,0.5959,0.5961,0.5965,0.5996,0.5978,0.6003,0.6022,0.6001,0.6025,0.6026,0.6041,0.6044,0.605,0.6054,0.6056,0.6069,0.607,0.607,0.607,0,0,0,0,0,0,0,0.5917,0.5921,0.5952,0.5959,0.5963,0.5974,0.5979,0.5983,0.6015,0.6003,0.6006,0.6011,0.6043,0.6049,0.6051,0.6057,0.6069,0.607,0.607,0.607,0.6053,0.6052,0,0,0,0,0,0,0.5911,0.5919,0.595,0.5953,0.5944,0.5974,0.5979,0.5985,0.6015,0.6021,0.601,0.6013,0.6047,0.605,0.6053,0.6039,0.607,0.6071,0.6071,0.6054,0.6053,0.6052,0,0,0,0,0,0,0.591,0.5914,0.5949,0.5937,0.5942,0.5973,0.5979,0.5985,0.5991,0.6021,0.6027,0.601,0.6048,0.6052,0.6053,0.6041,0.6071,0.6072,0.6055,0.6054,0.6052,0.6011,0,0,0,0,0,0,0.5909,0.5913,0.5908,0.5936,0.5943,0.5948,0.5978,0.5985,0.5992,0.5996,0.6022,0.6027,0.6049,0.6051,0.6053,0.6043,0.6072,0.6056,0.6054,0.6053,0.6014,0.6009,0.6004,0,0,0,0,0,0.5907,0.5894,0.5907,0.5911,0.5937,0.5947,0.5951,0.5976,0.5991,0.5986,0.6006,0.6027,0.6042,0.6051,0.6054,0.6043,0.6057,0.6055,0.6053,0.6016,0.601,0.6004,0,0,0,0,0,0,0.5862,0.5898,0.5913,0.5909,0.5925,0.5954,0.5949,0.5969,0.598,0.5983,0.6014,0.602,0.6017,0.603,0.604,0.6032,0.6053,0.6051,0.6024,0.6018,0.6013,0.601,0.6073,0,0,0,0,0,0.5851,0.5857,0.5888,0.5881,0.5888,0.5917,0.5923,0.5941,0.5959,0.5965,0.5985,0.6001,0.6009,0.6014,0.6024,0.6016,0.6023,0.601,0.6005,0.6001,0.6,0.5998,0.5993,0.6045,0.6045,0.6045,0,0,0.583,0.585,0.5852,0.5873,0.5887,0.5892,0.5923,0.5926,0.5931,0.5966,0.5969,0.5983,0.6003,0.6,0.5999,0.6011,0.5987,0.5999,0.5995,0.5996,0.5996,0.5991,0.5986,0.6044,0.6044,0.6044,0,0,0.5793,0.5809,0.5806,0.582,0.5842,0.5862,0.5861,0.5888,0.59,0.5903,0.593,0.5935,0.5949,0.5963,0.5971,0.5942,0.5962,0.5944,0.5919,0.5917,0.5913,0.591,0.59,0.5896,0.5942,0.5942,0.5942,0,0.5763,0.5773,0.5801,0.5804,0.5813,0.5846,0.5844,0.5856,0.5879,0.5885,0.5897,0.5917,0.5932,0.5933,0.5926,0.5932,0.5932,0.5941,0.5912,0.5908,0.5906,0.5897,0.5893,0.594,0.594,0.594,0.594,0,0.5736,0.5742,0.5736,0.576,0.5768,0.5768,0.5797,0.5802,0.582,0.5838,0.5842,0.5862,0.5877,0.5878,0.5895,0.5882,0.5889,0.5906,0.5927,0.5898,0.5891,0.5887,0.5936,0.5937,0.5938,0.5938,0,0,0.5671,0.5712,0.5709,0.5721,0.5748,0.5754,0.5755,0.5771,0.5775,0.579,0.5793,0.5805,0.5821,0.5831,0.585,0.5848,0.5826,0.5866,0.5867,0.5859,0.5814,0.5802,0.5797,0.5839,0.5838,0.5838,0.5813,0,0.564,0.5646,0.5673,0.5671,0.5678,0.571,0.5712,0.5729,0.5746,0.5754,0.5773,0.5782,0.5802,0.5809,0.5808,0.5828,0.5817,0.583,0.5842,0.5842,0.5837,0.5793,0.578,0.5755,0.581,0.5809,0.5809,0,0.5605,0.562,0.5619,0.5648,0.5651,0.5652,0.567,0.5677,0.5697,0.571,0.5722,0.5744,0.5748,0.5768,0.5775,0.5783,0.579,0.58,0.58,0.5803,0.5824,0.5796,0.5748,0.5744,0.5804,0.5805,0.5805,0,0.556,0.5579,0.5581,0.559,0.5623,0.5624,0.5638,0.5659,0.5667,0.5682,0.5688,0.5702,0.5711,0.5722,0.5747,0.5759,0.5751,0.5773,0.5763,0.5762,0.576,0.576,0.5713,0.5762,0.5762,0.5763,0.5763,0,0.5523,0.5521,0.5562,0.5563,0.5563,0.5593,0.5592,0.5609,0.5628,0.5633,0.5662,0.5666,0.57,0.5708,0.5728,0.5731,0.5734,0.5745,0.5751,0.5743,0.5742,0.5748,0.5751,0.5762,0.5762,0.5762,0.5762,0,0.5472,0.5499,0.5504,0.5536,0.5544,0.5542,0.5569,0.5572,0.5592,0.5599,0.5602,0.5633,0.5644,0.5671,0.5689,0.5703,0.5701,0.5711,0.5695,0.5698,0.5687,0.5688,0.5644,0.564,0.569,0.569,0.5689,0,0.5448,0.5447,0.548,0.5486,0.5499,0.5508,0.5517,0.5547,0.5555,0.5579,0.558,0.5594,0.5607,0.5624,0.5648,0.5662,0.5673,0.5656,0.5675,0.5668,0.5674,0.5674,0.5675,0.5652,0.5651,0.5651,0.565,0,0.5401,0.5415,0.5427,0.5444,0.5454,0.5469,0.5485,0.5488,0.5523,0.553,0.5543,0.5553,0.5573,0.5587,0.5605,0.562,0.5641,0.5644,0.5643,0.5635,0.5627,0.5633,0.5684,0.5645,0.5646,0.5646,0.5646,0.5646,0.5364,0.5366,0.5389,0.5402,0.5418,0.5432,0.5437,0.5458,0.5469,0.5488,0.5505,0.5517,0.5539,0.5566,0.5579,0.5588,0.5599,0.5596,0.5596,0.5595,0.5592,0.5625,0.5592,0.5592,0.5592,0.5592,0.5592,0,0.532,0.5337,0.5348,0.5371,0.5381,0.5401,0.542,0.5428,0.5438,0.5456,0.5469,0.5484,0.5498,0.5524,0.554,0.5543,0.5553,0.5546,0.5547,0.555,0.5581,0.5582,0.5538,0.5538,0.5538,0.5538,0.5538,0.5538,0.5298,0.5303,0.532,0.5333,0.535,0.5362,0.5372,0.5386,0.5401,0.5417,0.5429,0.5446,0.5468,0.5486,0.55,0.5507,0.5513,0.5503,0.5513,0.5542,0.5547,0.5552,0.5553,0.5503,0.5503,0.5481,0.5481,0.548]}]]